Weather History for Hill City, KS

Change the Weather History Date:

Friday, September 20, 2013

  Actual Average Record
Temperature  
Mean Temperature 61 °F 66 °F  
Max Temperature 75 °F 80 °F 99 °F (1935)
Min Temperature 47 °F 51 °F 38 °F (1983)
Degree Days  
Heating Degree Days 4    
Growing Degree Days 10 (Base 50)    
Moisture  
Dew Point 48 °F    
Average Humidity 68    
Maximum Humidity 96    
Minimum Humidity 37    
Precipitation  
Precipitation 0.00 in 0.06 in 0.26 in (2000)
Month to date precipitation 1.50 1.31  
Year to date precipitation 14.44 19.19  
Sea Level Pressure  
Sea Level Pressure 30.09 in    
Wind  
Wind Speed 4 mph (NW)    
Max Wind Speed 7 mph    
Max Gust Speed -    
Visibility 10 miles    
Events      
T = Trace of Precipitation, MM = Missing Value Source: NWS Daily Summary

Daily Weather History Graph

Daily Weather History Graph

Search for Another Location

Airport:

Trip Planner

Search our weather history database for the weather conditions in past years. The results will help you decide how hot, cold, wet, or windy it might be!

Date:

Astronomy

Sep. 20, 2013 Rise Set
Actual Time 7:25 AM CDT 7:39 PM CDT
Civil Twilight 6:58 AM CDT 8:05 PM CDT
Nautical Twilight 6:27 AM CDT 8:37 PM CDT
Astronomical Twilight 5:55 AM CDT 9:09 PM CDT
Moon 8:14 PM CDT (9/20) 8:41 AM CDT (9/20)
Length of Visible Light 13h 07m
Length of Day
12h 13m
Full, 98% of the Moon is Illuminated
Sep 20
Full
Sep 26
Last Quarter
Oct 4
New
Oct 11
First Quarter
Oct 18
Full

Hourly Weather History & Observations

Time (CDT) Temp. Dew Point Humidity Pressure Visibility Wind Dir Wind Speed Gust Speed Precip Events Conditions
12:53 AM 53.1 °F 51.1 °F 93% 30.11 in 10.0 mi Calm Calm - N/A   Clear
1:53 AM 52.0 °F 50.0 °F 93% 30.10 in 10.0 mi NNW 6.9 mph - N/A   Clear
2:53 AM 51.1 °F 48.9 °F 92% 30.10 in 10.0 mi NNW 6.9 mph - N/A   Clear
3:53 AM 51.1 °F 48.0 °F 89% 30.10 in 10.0 mi NW 6.9 mph - N/A   Clear
4:53 AM 48.9 °F 46.9 °F 93% 30.10 in 10.0 mi NW 5.8 mph - N/A   Clear
5:53 AM 48.0 °F 46.9 °F 96% 30.12 in 10.0 mi NNW 5.8 mph - N/A   Clear
6:53 AM 48.0 °F 46.0 °F 93% 30.13 in 9.0 mi NW 5.8 mph - N/A   Scattered Clouds
7:53 AM 48.0 °F 46.0 °F 93% 30.15 in 10.0 mi NNW 6.9 mph - N/A   Clear
8:53 AM 53.1 °F 48.0 °F 83% 30.15 in 10.0 mi NNW 4.6 mph - N/A   Clear
9:53 AM 59.0 °F 46.0 °F 62% 30.16 in 10.0 mi North 6.9 mph - N/A   Clear
10:53 AM 62.1 °F 44.1 °F 52% 30.16 in 10.0 mi Calm Calm - N/A   Clear
11:53 AM 64.0 °F 45.0 °F 50% 30.16 in 10.0 mi Calm Calm - N/A   Clear
12:53 PM 66.9 °F 45.0 °F 45% 30.13 in 10.0 mi Calm Calm - N/A   Clear
1:53 PM 69.1 °F 46.9 °F 45% 30.10 in 10.0 mi WNW 4.6 mph - N/A   Clear
2:53 PM 72.0 °F 48.0 °F 43% 30.07 in 10.0 mi SSW 5.8 mph - N/A   Clear
3:53 PM 72.0 °F 48.0 °F 43% 30.04 in 10.0 mi WNW 4.6 mph - N/A   Clear
4:53 PM 73.9 °F 46.0 °F 37% 30.03 in 10.0 mi Calm Calm - N/A   Clear
5:53 PM 73.9 °F 46.9 °F 38% 30.02 in 10.0 mi Calm Calm - N/A   Clear
6:53 PM 73.9 °F 46.9 °F 38% 30.01 in 10.0 mi Calm Calm - N/A   Clear
7:53 PM 66.0 °F 50.0 °F 56% 30.02 in 10.0 mi SE 3.5 mph - N/A   Clear
8:53 PM 59.0 °F 54.0 °F 83% 30.03 in 10.0 mi Calm Calm - N/A   Clear
9:53 PM 60.1 °F 50.0 °F 69% 30.02 in 10.0 mi South 4.6 mph - N/A   Clear
10:53 PM 57.9 °F 48.9 °F 72% 30.02 in 10.0 mi Calm Calm - N/A   Clear
11:53 PM 57.0 °F 48.9 °F 74% 30.02 in 10.0 mi SW 4.6 mph - N/A   Clear